Theta_e
269 271 270 268 268 268 266 266 266 266 266 268 271 271 273 275 276 278 277 278 278 279 281 282 282 283 283 283 282 282 279 277 277 277 277 276 275 275 276 277 278 278 279 280
267 270 270 267 268 269 268 267 267 268 268 271 273 274 274 274 275 275 276 277 277 278 279 279 281 281 283 282 281 281 279 278 278 276 275 273 273 273 274 276 276 276 278 278
265 267 268 265 265 267 267 267 267 266 269 273 272 272 273 274 274 274 276 276 277 278 278 279 280 281 281 282 281 278 278 277 277 276 274 273 273 273 272 274 276 276 276 277
266 265 260 267 272 271 269 270 271 271 272 273 273 274 275 276 275 276 276 276 277 278 279 280 281 281 282 282 281 278 277 277 275 275 274 274 273 272 273 275 275 277 277 277
264 263 264 267 270 268 266 267 273 272 273 273 274 274 274 276 276 276 276 276 278 279 280 280 280 280 281 281 281 279 278 277 276 274 273 274 273 272 274 274 276 276 277 276
264 260 259 268 272 273 272 265 273 273 273 272 272 267 271 275 275 274 276 277 278 280 280 279 280 280 279 280 281 281 280 280 278 275 274 273 274 274 275 275 277 278 277 278
264 263 265 271 272 273 263 266 273 274 273 272 270 271 273 273 273 275 275 277 279 279 278 278 279 279 278 279 279 281 282 282 279 276 274 274 275 275 274 274 277 275 276 278
262 262 260 272 271 267 271 274 274 274 273 270 270 270 271 271 272 272 272 273 275 275 276 278 278 278 278 278 280 281 281 281 279 277 276 275 274 273 274 275 274 274 276 277
268 269 271 274 272 273 272 271 273 269 270 269 268 269 269 270 270 271 271 272 273 274 275 276 277 278 277 278 280 280 280 280 279 278 276 276 274 273 273 274 276 276 276 277
268 270 270 273 272 272 272 271 268 268 266 267 266 267 267 268 268 269 270 270 272 272 272 273 276 277 277 277 278 278 279 279 279 277 276 276 275 275 274 274 275 275 276 276
268 271 271 271 272 271 268 266 264 265 264 263 264 264 265 265 266 267 268 269 271 271 271 272 275 274 275 276 276 276 278 278 278 277 277 275 275 275 275 277 277 276 277 277
269 270 272 272 269 265 263 262 261 260 261 263 262 262 264 264 265 266 266 269 268 269 270 271 271 272 273 275 275 275 276 277 277 276 276 275 274 274 278 277 278 279 279 278
271 270 271 270 266 262 263 262 261 259 260 259 262 261 263 263 265 269 266 266 268 268 269 269 270 270 272 273 274 274 275 276 277 276 275 274 274 273 273 276 279 279 278 277
269 269 268 266 268 260 256 259 259 259 259 260 261 262 263 262 264 264 265 267 267 268 268 268 269 269 271 272 274 274 274 277 276 276 275 274 274 273 274 274 274 274 276 275
268 269 268 264 261 260 257 258 260 260 261 262 264 262 263 263 263 264 266 267 268 268 267 268 268 269 271 272 272 274 274 275 277 276 274 274 274 273 274 273 273 272 273 273
270 268 264 262 262 260 262 263 262 262 264 265 265 265 266 266 265 266 267 268 267 268 267 268 269 270 271 272 272 275 274 276 276 274 274 274 274 273 272 272 272 271 271 271
267 267 264 263 263 264 264 265 265 264 265 265 265 266 266 266 266 266 267 268 269 269 269 270 270 272 272 272 273 275 276 277 276 274 275 274 273 272 272 272 271 271 271 272
267 267 265 264 264 264 264 265 265 265 264 264 265 265 265 265 264 266 266 268 268 269 270 271 271 274 273 273 273 274 275 276 275 274 274 273 273 272 272 271 271 271 271 273
267 265 265 265 265 264 264 264 264 264 264 264 264 264 264 265 265 266 267 267 267 267 270 272 274 273 272 275 274 274 274 274 273 273 273 274 272 272 271 270 270 270 271 271
265 265 265 264 265 264 263 264 263 263 264 264 264 264 264 264 265 265 266 266 267 267 274 273 273 272 272 272 274 273 273 273 272 272 272 271 271 270 270 270 269 269 269 269
264 263 263 263 263 263 263 263 261 262 263 264 263 263 263 264 265 265 265 265 267 269 273 273 273 273 273 272 272 271 272 272 272 272 272 271 271 270 270 269 268 268 269 269
262 262 262 262 262 262 262 262 262 262 263 263 263 264 263 263 264 264 265 265 267 271 271 270 273 274 273 272 271 270 271 271 271 271 271 271 270 269 269 268 268 268 269 269
261 261 262 261 261 261 261 262 262 262 262 262 262 263 263 263 264 262 262 265 267 269 270 268 274 274 272 270 270 269 269 270 270 270 270 270 270 269 268 268 268 268 268 268
261 261 261 262 261 261 261 262 262 263 263 263 263 263 263 263 263 265 265 266 268 269 268 268 271 272 270 268 268 268 268 268 268 269 270 270 268 268 268 268 267 268 268 268
261 260 259 260 261 262 262 262 262 263 263 262 263 263 264 264 262 263 264 264 266 266 266 266 269 270 266 266 266 266 267 267 268 267 267 267 267 267 267 267 267 267 267 267
260 261 262 262 262 262 262 262 262 263 263 262 262 263 263 263 263 263 263 264 264 265 264 264 264 266 265 264 265 265 265 266 267 266 266 266 265 266 266 266 265 266 266 266
261 264 262 262 263 263 263 264 264 262 263 262 262 263 263 262 262 263 263 262 262 262 263 263 263 263 265 264 263 263 264 265 266 266 265 265 265 265 265 265 265 265 265 265
Wind_Speed
1 7 9 7 6 7 4 2 3 3 3 5 8 8 9 10 10 8 10 11 10 10 11 8 7 6 6 5 3 5 7 9 10 9 8 6 6 5 5 5 4 4 5 5
8 6 7 8 7 4 4 3 1 1 4 3 5 6 9 11 10 7 7 9 9 9 9 9 8 9 7 6 5 5 8 10 9 9 8 8 7 6 6 6 5 4 5 4
4 2 6 5 3 4 3 2 3 3 3 6 9 11 11 15 10 8 6 11 12 11 10 9 10 9 9 8 5 5 7 7 8 8 10 9 8 7 7 6 5 5 4 4
2 4 5 5 2 4 7 9 5 6 6 6 9 11 12 13 7 5 9 16 14 11 11 11 11 11 10 9 8 6 6 7 8 9 9 8 8 8 7 5 6 5 4 4
2 2 3 4 5 3 3 2 6 7 6 9 12 13 13 3 4 13 18 17 15 12 12 12 12 12 12 11 10 8 8 9 9 9 9 9 9 9 7 7 6 6 5 4
2 3 4 5 5 3 3 4 7 7 9 13 13 14 11 14 17 18 16 17 16 14 13 12 12 12 12 12 11 11 10 10 9 10 10 11 11 9 8 7 7 5 5 5
3 4 4 5 7 5 4 4 1 5 10 11 13 12 18 17 15 15 16 17 14 13 13 13 12 12 13 13 12 12 12 10 9 10 12 11 10 9 8 8 6 5 5 5
2 3 4 10 7 6 4 1 5 8 10 12 14 15 15 15 16 16 16 16 16 14 14 14 14 13 13 13 13 12 12 11 10 11 10 9 10 9 8 8 7 6 6 5
6 1 3 9 2 2 2 2 6 5 9 11 13 15 15 14 16 15 16 14 14 14 14 14 14 13 14 14 13 12 11 12 11 11 11 11 12 11 8 8 7 7 5 5
2 2 3 5 1 0 2 4 3 5 6 9 11 13 15 14 14 14 14 14 14 14 15 15 13 12 14 14 14 13 12 11 10 11 11 12 10 10 9 8 8 7 6 5
6 6 3 3 2 2 1 3 3 5 4 8 8 11 12 12 14 12 13 12 13 13 13 15 13 15 13 13 13 13 12 10 9 9 12 11 10 10 10 8 9 8 6 4
2 2 1 1 2 3 2 3 4 3 6 8 5 8 11 11 11 11 12 12 12 13 14 14 15 15 14 12 12 12 12 9 9 9 9 9 9 8 13 11 15 13 9 6
2 1 3 3 1 2 4 4 3 5 6 6 8 5 9 11 11 14 12 12 11 13 12 12 13 13 13 12 12 12 12 11 8 10 9 10 10 9 9 10 13 10 8 6
3 2 3 1 3 3 4 5 6 6 6 5 7 7 8 9 11 11 12 13 12 12 12 12 12 12 12 12 11 11 12 16 9 8 9 9 9 9 8 9 9 7 5 5
6 1 2 2 2 4 2 4 5 6 6 7 6 7 8 11 11 12 12 12 12 11 10 10 11 12 10 10 12 11 9 8 8 8 9 10 9 8 8 9 7 7 6 4
3 2 0 2 4 5 5 6 6 7 8 10 10 11 11 11 11 11 11 11 11 11 11 10 11 11 9 10 10 7 6 11 9 7 8 9 8 8 8 8 7 7 6 6
3 3 3 4 5 6 6 6 7 8 9 10 11 12 12 12 12 12 11 12 12 11 10 10 11 10 9 9 8 5 4 5 12 7 8 8 8 9 8 8 7 6 5 6
2 4 5 6 6 6 7 7 7 8 8 10 10 10 10 11 11 13 13 13 12 11 10 9 11 9 9 7 7 5 3 3 7 6 7 8 8 8 8 7 7 7 5 7
3 5 4 5 5 5 6 6 7 8 8 8 9 10 10 9 10 12 12 12 11 13 12 11 13 11 10 11 4 4 1 3 6 6 5 10 8 7 7 6 6 6 6 5
3 3 4 4 4 4 6 6 7 7 7 7 8 8 9 10 10 11 11 10 9 11 13 8 7 7 8 10 9 4 3 3 5 5 5 7 7 6 6 8 6 6 6 5
4 3 4 5 5 6 5 5 6 7 8 7 7 8 8 9 9 10 10 9 13 16 16 15 7 5 5 6 7 5 4 2 3 4 4 6 8 7 6 6 5 5 5 5
3 4 5 5 5 6 5 6 6 7 7 8 8 7 8 9 9 9 8 7 10 20 11 11 6 2 5 8 5 5 5 3 2 3 4 5 6 6 6 5 5 5 5 4
3 4 5 5 5 6 7 6 6 7 7 8 8 8 7 6 7 8 8 9 9 15 9 9 15 13 12 6 5 5 5 4 2 2 3 4 5 5 5 5 5 5 5 4
4 4 5 5 5 6 6 6 7 7 7 8 7 7 7 5 7 5 7 12 16 14 10 10 13 13 10 5 5 4 4 3 3 2 3 6 4 4 4 5 5 4 3 3
4 4 4 5 6 5 6 7 7 6 8 7 8 6 5 4 5 8 7 8 13 11 7 12 14 11 5 5 4 4 3 2 1 2 2 3 3 4 4 4 4 4 3 2
5 5 5 6 5 5 5 6 6 6 6 7 7 5 5 6 6 6 6 9 7 9 6 6 6 6 4 4 4 4 3 3 2 1 2 2 3 3 3 3 3 2 2 2
5 9 5 5 4 5 5 7 7 8 6 6 9 8 5 5 6 7 8 6 5 5 5 5 5 6 4 3 3 3 3 2 1 2 2 2 2 2 2 1 1 1 2 2
Wind_Direction
51 86 99 100 61 52 72 7 299 50 96 29 8 350 340 336 343 359 17 13 4 355 350 347 341 333 335 320 290 235 218 216 219 214 206 204 203 206 217 231 238 247 268 282
88 109 99 84 56 73 98 28 154 271 188 19 326 332 340 333 327 308 353 359 352 340 331 330 326 321 313 302 289 249 233 226 214 201 196 202 203 204 216 225 221 232 249 264
151 244 269 225 46 45 311 275 267 297 62 321 331 336 330 314 314 285 310 338 335 328 320 312 316 312 300 294 289 250 243 235 213 201 200 200 197 195 212 218 209 224 238 246
134 188 226 94 198 285 289 294 210 218 247 293 315 318 307 293 282 281 306 318 316 308 310 309 309 305 300 291 281 254 247 230 215 204 202 194 191 202 208 210 214 220 231 244
261 243 348 223 228 229 248 253 215 234 266 309 322 315 306 290 334 323 317 306 298 293 298 302 301 307 301 293 279 258 247 239 221 203 199 190 194 199 200 203 204 210 219 242
154 256 252 122 163 142 184 233 190 233 294 314 322 307 311 334 318 307 306 304 295 290 298 296 298 306 297 292 285 272 251 245 225 204 200 199 197 190 191 200 204 207 234 236
191 260 275 222 132 143 254 29 106 307 306 304 297 297 311 311 306 309 309 323 311 300 298 298 300 301 289 289 282 279 272 256 225 214 209 202 191 187 187 191 199 211 238 250
138 236 261 140 117 212 31 20 323 305 305 304 302 302 302 307 309 313 310 314 308 299 296 297 300 296 289 287 289 286 275 257 235 215 210 197 187 184 190 190 197 213 225 248
220 255 48 178 82 82 113 295 319 305 306 307 299 302 308 308 309 308 309 312 308 303 299 298 293 292 290 295 293 291 277 259 242 221 208 198 189 182 184 190 203 212 224 244
283 102 229 243 85 65 197 318 342 309 297 300 303 308 308 308 309 307 308 309 306 311 302 295 293 294 294 294 291 284 274 259 242 222 208 199 195 186 191 190 198 212 222 232
258 269 253 176 173 87 351 321 304 306 286 290 301 298 301 304 306 306 305 305 306 304 301 297 303 299 292 292 288 280 270 255 235 225 212 198 199 190 194 195 198 204 212 220
281 78 10 317 126 142 315 287 295 281 297 292 271 280 304 301 298 297 296 309 306 302 302 302 302 297 295 291 282 276 266 247 228 217 211 195 193 186 198 193 198 205 205 212
294 159 273 333 84 105 297 305 290 263 253 278 290 272 301 306 306 307 313 303 304 305 302 297 297 295 297 293 281 271 261 248 227 216 205 197 191 182 173 191 196 186 200 205
205 238 244 191 309 324 261 280 304 288 270 267 278 294 291 293 300 301 300 304 302 301 299 296 297 292 295 294 287 271 260 245 221 210 200 189 185 176 175 174 174 175 186 188
214 194 312 332 288 299 273 299 315 303 300 302 300 289 303 307 306 303 301 302 304 301 297 303 298 295 299 299 296 276 252 230 206 203 191 183 171 168 173 182 183 172 165 160
192 271 206 278 298 291 289 301 306 310 324 324 322 324 320 310 302 302 305 312 316 318 310 307 305 301 302 301 305 283 244 218 182 173 187 169 161 171 176 176 169 171 179 174
294 304 285 284 302 313 307 308 312 314 319 319 319 318 319 321 319 327 322 321 319 307 303 312 310 311 312 311 311 299 260 210 172 173 175 163 160 167 170 166 167 167 169 175
309 286 268 266 283 295 305 307 308 310 312 314 313 316 321 326 327 325 326 322 318 319 319 318 308 347 327 314 316 313 294 278 138 159 151 153 158 157 160 165 164 162 159 173
266 287 288 288 289 290 298 299 301 305 307 311 314 319 320 319 323 324 326 332 338 332 329 317 323 345 343 352 8 335 342 140 134 138 144 159 149 148 151 161 163 165 162 154
293 291 300 300 304 300 304 303 305 297 304 308 310 317 327 330 330 327 329 326 333 328 346 328 345 344 343 340 13 357 7 105 127 136 144 126 140 144 149 162 161 166 171 174
311 312 309 313 312 313 307 307 303 301 308 305 305 312 316 318 330 330 328 326 341 330 351 341 321 333 347 11 9 6 9 53 121 143 153 139 149 147 152 154 166 173 173 171
316 308 310 311 316 309 314 309 303 303 305 311 310 308 312 318 329 327 317 316 326 327 341 336 312 80 30 24 7 5 9 22 77 108 130 138 139 145 145 153 169 176 177 178
286 279 291 295 310 305 303 297 312 311 307 314 309 309 308 307 314 320 321 328 327 316 351 337 358 33 25 14 6 5 9 12 33 108 134 133 137 142 147 157 172 174 172 175
286 290 288 290 292 294 300 314 311 309 304 305 293 299 298 309 312 303 307 314 322 324 337 327 329 8 12 356 354 356 4 15 28 68 118 123 120 125 139 156 160 164 172 187
283 290 279 286 290 299 299 305 305 303 316 304 304 301 289 286 287 305 302 308 312 324 325 324 333 344 356 346 343 336 339 350 23 80 91 119 133 140 146 151 158 169 179 201
281 279 285 278 275 287 288 293 287 297 301 308 310 300 287 303 300 306 301 303 312 307 318 317 314 323 336 328 328 324 317 309 28 116 130 136 142 144 143 144 160 179 197 227
267 271 269 272 268 279 284 280 312 305 298 291 293 293 286 300 303 316 313 311 308 306 301 303 311 306 315 315 319 313 313 315 244 146 131 136 142 140 148 168 194 234 255 265